Wind_Speed
27 28 29 28 28 29 31 31 32 31 31 30 31 32 33 33 34 35 35 35 35 35 34 35 35 35 34 35 35 35 36 37 37 38 39 39 40 40 41 41 42 43 44 44
28 28 29 29 28 29 30 31 31 31 30 30 30 32 33 34 34 34 34 34 35 34 34 34 34 34 34 34 35 35 36 36 37 38 38 39 40 40 40 41 42 43 43 43
29 30 30 30 28 29 29 29 31 31 30 30 30 31 31 32 33 33 33 33 33 34 34 34 33 33 33 34 34 35 36 36 36 37 37 38 38 39 40 41 41 42 42 43
29 30 31 29 29 29 29 29 30 30 30 30 30 31 31 32 33 32 33 34 33 33 33 33 33 34 34 34 34 35 36 36 37 37 37 37 38 39 39 40 41 41 42 43
29 31 31 29 29 30 30 29 29 30 30 30 31 32 31 32 33 33 33 33 33 33 33 34 34 34 34 34 35 35 36 36 37 37 37 37 38 39 39 39 40 41 42 42
29 30 30 29 30 30 31 30 29 30 30 30 31 32 32 32 32 33 33 33 33 33 33 34 34 34 34 34 34 35 35 36 36 36 37 37 38 39 39 40 40 41 42 42
29 30 30 29 30 31 31 31 30 31 31 32 32 33 33 33 33 33 33 33 33 34 34 34 34 34 35 34 34 35 35 36 36 36 36 37 37 38 39 40 40 40 41 42
28 30 29 30 31 31 31 31 31 31 32 33 33 33 33 34 34 34 34 33 33 34 34 35 34 34 34 35 35 35 35 35 35 35 36 36 36 37 37 39 39 39 40 40
29 28 28 29 30 31 31 31 31 31 31 32 32 32 33 33 33 33 34 33 33 33 34 34 35 34 34 34 35 34 34 34 34 34 35 36 36 36 36 37 38 39 39 40
29 28 29 29 30 30 30 31 30 30 31 31 32 32 32 32 32 32 33 33 33 33 34 34 34 34 33 34 34 33 33 33 33 33 34 34 34 35 35 36 37 38 39 39
29 29 29 29 29 30 31 31 30 30 31 32 32 32 32 32 32 32 33 33 33 33 33 34 34 33 33 33 33 32 33 33 33 33 33 33 34 34 34 35 36 37 37 37
30 30 31 30 30 30 31 31 31 31 32 32 32 32 32 32 32 32 32 32 32 33 33 33 33 32 32 32 31 31 32 31 32 32 32 32 33 33 34 34 34 35 35 35
31 31 31 31 31 31 31 31 32 32 32 32 32 32 32 32 32 32 31 31 32 32 32 32 31 30 30 30 31 31 31 31 31 31 31 31 31 32 32 33 33 34 33 32
31 32 32 32 32 32 32 32 32 32 32 32 32 32 33 33 32 32 31 31 31 31 31 30 30 29 30 30 30 30 30 31 31 30 31 31 31 31 31 31 31 31 31 30
31 32 32 32 32 33 33 33 32 32 32 32 32 33 34 34 33 32 31 31 30 30 30 30 30 29 30 30 30 30 30 30 30 30 30 30 30 30 30 30 30 29 29 29
31 31 31 31 32 33 33 33 33 33 33 33 33 33 33 34 33 33 32 31 31 31 30 30 30 30 29 29 29 28 29 29 28 29 29 29 29 29 29 28 28 28 28 28
31 30 31 31 31 31 32 32 33 33 33 33 33 33 33 33 32 32 32 32 31 31 30 30 30 29 29 28 27 27 27 27 27 28 28 28 27 27 27 27 27 27 27 26
31 31 31 30 30 30 30 31 31 31 31 31 32 32 32 32 32 31 31 31 30 30 30 29 29 29 28 28 27 27 27 26 26 26 26 26 26 26 26 26 26 26 26 25
29 30 30 30 29 29 30 30 30 31 31 31 31 31 31 31 30 30 30 30 29 29 29 29 28 28 27 26 25 25 25 25 25 25 25 25 25 25 25 26 25 25 24 24
28 29 29 30 30 30 30 30 31 31 31 31 31 30 30 29 29 29 29 29 29 28 28 28 27 26 25 24 24 23 23 24 24 24 24 25 25 25 25 25 24 24 23 22
27 27 27 28 28 29 29 29 30 30 30 30 30 29 29 28 29 29 28 28 28 28 27 27 25 24 24 23 23 23 23 24 24 24 24 24 24 24 24 23 23 22 21 20
28 27 27 27 27 27 27 27 28 28 29 29 29 28 28 28 28 28 27 27 27 27 26 25 24 23 23 23 23 23 23 24 24 24 24 24 24 23 23 22 21 20 19 18
28 28 27 27 27 27 27 27 26 27 27 27 27 26 27 27 28 27 27 26 26 25 25 24 23 22 22 22 22 22 23 23 23 23 23 23 22 21 21 20 19 18 18 18
28 28 28 27 28 28 27 27 26 26 26 26 26 26 25 26 26 26 26 25 24 24 23 22 21 21 21 21 21 22 22 22 22 22 21 21 20 19 19 19 18 18 18 18
28 28 27 27 27 27 27 26 26 26 26 26 26 26 25 25 24 24 23 23 23 22 21 21 21 20 20 20 20 20 20 21 21 20 19 18 18 17 17 17 17 17 17 17
27 27 27 26 26 26 25 25 25 25 25 25 25 25 25 24 23 22 21 21 21 20 20 20 19 19 20 20 20 19 19 19 19 19 18 17 16 16 15 15 15 16 16 16
26 26 26 25 25 25 24 23 23 24 23 23 23 23 22 22 22 21 20 20 19 19 18 18 19 19 19 19 18 18 18 17 17 17 16 16 15 15 15 14 14 14 15 15
Wind_Direction
267 269 270 272 273 274 276 277 279 280 279 280 280 280 280 281 282 283 285 284 283 282 282 282 281 280 278 276 274 274 272 271 270 271 271 272 272 272 273 274 274 274 274 274
265 268 270 271 273 275 276 277 278 279 279 280 281 281 281 282 282 284 285 286 285 282 281 281 281 280 279 277 275 274 274 273 272 272 273 273 273 273 274 275 276 276 275 275
267 269 270 271 274 275 275 277 278 279 279 278 279 280 281 282 284 285 285 286 287 285 282 281 282 281 280 278 277 276 275 274 274 274 274 274 274 274 276 277 277 277 276 276
270 271 272 274 274 275 275 276 276 277 276 277 279 280 281 283 284 285 286 287 287 287 283 282 283 282 281 279 278 278 276 275 275 274 275 275 275 276 277 278 278 278 278 278
272 273 275 274 275 275 276 275 276 276 276 277 278 279 281 282 284 286 286 286 286 286 286 284 283 283 283 282 280 279 278 277 276 275 276 276 277 277 278 279 280 280 280 281
274 275 277 277 276 275 276 276 276 276 277 277 278 279 280 281 283 284 284 284 284 284 286 286 283 282 283 283 282 281 280 279 277 276 277 279 279 278 278 279 281 282 282 283
276 277 278 279 279 278 278 278 277 277 277 278 279 281 282 282 282 284 284 283 282 283 285 285 283 282 282 283 283 282 282 280 278 277 279 281 281 280 281 281 282 283 284 285
279 279 280 281 280 279 279 279 279 279 280 280 281 282 282 282 282 283 283 283 283 283 284 285 284 283 283 284 284 284 283 282 281 279 280 282 282 283 283 284 284 284 285 286
279 280 280 280 279 279 280 280 281 281 282 283 282 283 284 284 283 283 282 283 283 284 285 285 285 285 285 285 285 284 284 284 283 282 283 283 283 283 284 285 285 285 286 286
280 280 279 279 278 278 279 280 282 283 284 284 284 284 285 286 284 283 282 283 283 284 286 286 286 286 287 286 285 284 283 283 283 284 285 284 284 285 286 287 288 288 288 288
279 280 279 278 279 278 278 279 281 283 284 284 284 284 284 285 285 284 283 283 284 285 286 286 287 287 287 287 285 284 283 283 284 286 286 286 286 287 289 291 291 292 291 290
281 280 280 278 278 279 279 280 280 282 283 283 283 284 285 285 285 284 284 283 284 285 286 287 287 286 286 286 286 285 284 284 285 286 287 288 287 288 291 292 293 295 294 292
283 282 281 279 278 279 279 280 280 281 283 284 283 283 285 285 285 284 283 283 284 285 285 286 286 285 285 286 287 287 286 285 285 286 287 288 289 290 291 292 293 293 294 293
284 283 282 279 277 277 278 279 280 281 281 282 283 283 284 284 283 282 282 283 283 284 284 284 284 284 285 287 287 287 287 287 286 287 288 289 290 291 293 294 295 294 293 293
284 284 283 280 278 276 276 277 278 279 281 282 282 283 283 283 281 281 281 282 282 282 283 283 283 284 286 288 288 287 288 288 288 287 288 290 291 292 294 295 296 296 295 293
285 286 285 283 281 279 277 276 277 278 280 281 283 283 283 282 281 280 279 280 280 281 282 283 284 284 285 286 286 288 288 289 289 288 289 290 292 293 295 295 296 296 296 295
285 286 286 286 284 281 279 278 278 279 280 281 283 283 282 282 281 280 279 279 280 280 281 282 284 284 283 283 283 286 288 289 289 290 291 293 295 296 295 295 295 296 296 295
286 286 286 286 284 282 281 280 279 279 280 281 282 283 283 282 282 281 280 280 280 279 280 281 283 283 282 281 282 284 287 290 291 292 293 294 296 297 296 295 295 296 295 295
286 285 285 285 284 283 282 281 281 281 281 282 283 283 283 282 281 280 280 280 281 280 280 282 284 284 282 281 282 284 288 291 293 293 294 296 297 298 298 297 297 297 296 295
286 285 284 284 285 285 284 283 282 282 282 283 283 283 282 281 280 280 279 279 280 280 281 283 284 283 282 281 282 284 287 290 293 295 295 296 297 298 299 299 298 297 296 296
287 287 286 285 285 286 286 286 284 283 283 283 284 282 282 281 281 281 280 279 279 280 281 282 283 283 281 280 280 283 286 289 292 294 295 296 297 298 299 300 300 298 296 296
287 285 284 284 285 287 288 288 286 285 285 285 284 282 281 281 281 281 280 279 279 280 281 281 281 282 281 279 280 283 286 289 291 293 295 296 297 297 298 299 300 300 298 296
287 286 285 284 284 285 287 287 287 287 287 286 284 284 283 283 283 282 280 279 278 279 280 280 280 280 281 280 281 283 286 289 291 293 295 296 296 297 298 298 299 300 299 298
286 286 286 286 285 284 284 285 286 287 287 285 284 285 286 285 285 283 280 278 278 278 278 278 279 281 282 282 283 284 287 289 291 294 295 295 296 297 298 298 299 298 299 298
286 287 287 288 287 287 286 286 286 286 286 285 284 284 284 285 285 284 281 280 280 278 278 279 280 281 283 284 284 284 286 289 292 293 294 295 296 297 298 298 298 299 299 298
287 288 289 289 289 288 288 287 286 286 286 284 283 282 282 284 284 284 282 282 281 279 277 278 280 281 283 284 283 283 285 288 292 293 294 295 296 297 298 299 299 298 298 297
288 289 290 290 289 288 289 288 287 286 285 284 283 282 282 283 283 283 283 282 281 280 277 277 280 282 282 282 282 283 285 288 290 291 292 293 295 297 299 300 301 300 299 299
Height
5612 5612 5612 5612 5612 5611 5610 5609 5609 5609 5608 5608 5607 5605 5604 5603 5602 5601 5600 5598 5596 5595 5593 5592 5590 5588 5587 5586 5585 5584 5583 5583 5582 5582 5582 5581 5580 5580 5579 5578 5577 5576 5575 5574
5605 5604 5603 5604 5604 5604 5602 5602 5601 5600 5600 5600 5598 5596 5595 5594 5593 5592 5591 5589 5587 5585 5584 5582 5580 5579 5577 5576 5575 5574 5573 5573 5572 5571 5571 5570 5569 5568 5567 5566 5565 5564 5563 5561
5597 5596 5595 5596 5598 5596 5595 5594 5593 5592 5593 5591 5590 5588 5587 5586 5584 5583 5582 5580 5578 5576 5574 5573 5571 5569 5567 5566 5565 5564 5563 5563 5562 5561 5560 5559 5558 5557 5556 5555 5553 5552 5550 5549
5587 5588 5587 5592 5589 5587 5587 5586 5585 5584 5583 5582 5581 5580 5579 5577 5576 5574 5573 5571 5569 5567 5565 5563 5561 5559 5558 5556 5555 5554 5553 5552 5551 5550 5549 5548 5547 5546 5545 5543 5542 5540 5538 5537
5579 5578 5579 5582 5581 5579 5578 5578 5577 5575 5575 5574 5572 5571 5571 5569 5567 5566 5564 5562 5560 5558 5556 5554 5552 5550 5549 5547 5546 5544 5543 5542 5540 5540 5538 5537 5536 5535 5533 5532 5530 5528 5526 5524
5571 5569 5570 5574 5572 5569 5569 5569 5569 5567 5566 5565 5564 5563 5563 5560 5558 5557 5555 5553 5551 5549 5547 5545 5543 5541 5539 5538 5536 5534 5533 5532 5530 5529 5528 5526 5525 5523 5522 5520 5519 5517 5515 5512
5563 5561 5562 5564 5563 5561 5561 5562 5560 5558 5557 5556 5555 5554 5554 5551 5550 5548 5546 5544 5542 5540 5538 5536 5534 5532 5530 5528 5526 5525 5523 5521 5520 5519 5517 5516 5514 5512 5511 5509 5507 5506 5504 5501
5555 5554 5557 5555 5554 5553 5552 5551 5550 5548 5548 5547 5546 5545 5543 5542 5540 5539 5537 5535 5533 5531 5529 5527 5524 5523 5521 5519 5517 5515 5513 5512 5510 5509 5507 5506 5504 5502 5500 5498 5496 5494 5492 5490
5548 5549 5547 5546 5544 5543 5542 5542 5541 5540 5539 5538 5537 5536 5534 5532 5531 5529 5527 5526 5524 5522 5520 5517 5515 5513 5511 5509 5507 5505 5504 5502 5501 5499 5497 5495 5494 5492 5490 5488 5486 5483 5481 5478
5539 5539 5538 5537 5535 5534 5533 5533 5532 5531 5530 5529 5528 5526 5525 5523 5521 5520 5518 5516 5514 5513 5510 5508 5506 5504 5502 5500 5498 5496 5495 5493 5491 5490 5488 5486 5484 5482 5480 5478 5475 5473 5470 5467
5530 5530 5529 5528 5527 5526 5525 5524 5523 5522 5521 5519 5518 5517 5515 5514 5512 5511 5509 5507 5505 5503 5501 5499 5496 5494 5492 5490 5489 5487 5486 5484 5482 5480 5478 5477 5475 5472 5470 5468 5464 5462 5458 5455
5521 5521 5520 5519 5518 5517 5516 5515 5514 5513 5512 5510 5509 5507 5506 5504 5503 5501 5500 5498 5496 5494 5492 5490 5487 5485 5484 5482 5480 5478 5477 5475 5473 5471 5469 5467 5465 5463 5460 5458 5454 5451 5447 5444
5512 5511 5510 5509 5508 5507 5506 5506 5505 5504 5502 5501 5500 5498 5497 5495 5494 5492 5490 5489 5487 5485 5483 5481 5479 5477 5475 5473 5471 5469 5468 5466 5464 5463 5461 5458 5456 5454 5452 5449 5445 5441 5438 5435
5503 5501 5501 5500 5499 5498 5497 5496 5495 5494 5493 5492 5490 5489 5487 5486 5484 5483 5481 5480 5478 5476 5474 5473 5471 5469 5467 5465 5463 5461 5459 5457 5455 5454 5452 5450 5447 5445 5442 5439 5437 5433 5430 5427
5494 5492 5491 5490 5489 5488 5487 5486 5486 5485 5483 5482 5481 5479 5478 5476 5474 5473 5472 5470 5469 5468 5466 5464 5462 5461 5459 5457 5455 5453 5451 5449 5447 5445 5443 5441 5438 5436 5433 5431 5428 5425 5422 5419
5485 5483 5481 5480 5479 5478 5477 5476 5476 5475 5474 5472 5471 5469 5468 5466 5464 5463 5462 5461 5460 5459 5457 5455 5454 5452 5450 5448 5446 5445 5443 5440 5438 5437 5435 5433 5430 5428 5425 5423 5420 5417 5414 5412
5476 5475 5473 5472 5470 5469 5467 5466 5466 5465 5464 5462 5461 5459 5458 5456 5455 5453 5452 5451 5450 5449 5448 5446 5445 5443 5442 5440 5439 5437 5435 5433 5431 5429 5427 5425 5422 5420 5417 5415 5412 5410 5407 5404
5467 5465 5464 5462 5461 5459 5458 5457 5456 5455 5454 5452 5451 5450 5448 5447 5445 5444 5443 5442 5441 5440 5438 5437 5436 5434 5433 5432 5430 5429 5428 5426 5423 5421 5419 5417 5415 5413 5410 5408 5405 5403 5400 5398
5457 5456 5454 5453 5451 5450 5449 5447 5446 5445 5444 5443 5441 5440 5438 5437 5436 5435 5433 5432 5431 5430 5429 5428 5427 5425 5424 5423 5422 5421 5420 5418 5416 5414 5412 5410 5408 5406 5403 5401 5398 5396 5393 5391
5448 5446 5445 5443 5442 5441 5439 5438 5437 5436 5435 5433 5432 5430 5429 5428 5426 5425 5424 5424 5422 5421 5420 5419 5418 5417 5416 5415 5414 5413 5412 5411 5409 5407 5405 5403 5401 5399 5396 5394 5391 5389 5387 5384
5439 5437 5436 5434 5433 5431 5430 5428 5427 5426 5425 5424 5423 5421 5420 5418 5417 5416 5415 5415 5414 5412 5411 5411 5410 5409 5408 5407 5407 5406 5405 5404 5402 5400 5398 5396 5394 5392 5389 5387 5385 5382 5380 5378
5430 5428 5427 5425 5424 5423 5421 5419 5418 5417 5416 5415 5413 5412 5411 5410 5408 5407 5406 5406 5405 5404 5403 5402 5402 5401 5400 5400 5399 5398 5398 5396 5395 5393 5391 5389 5387 5385 5383 5380 5378 5376 5374 5373
5421 5420 5418 5417 5415 5414 5413 5411 5410 5408 5407 5406 5405 5403 5402 5401 5400 5399 5398 5397 5396 5395 5395 5394 5394 5393 5393 5392 5392 5391 5390 5389 5388 5386 5384 5382 5380 5378 5376 5374 5373 5371 5369 5368
5413 5411 5410 5408 5407 5405 5404 5403 5401 5400 5399 5398 5397 5395 5394 5393 5392 5390 5390 5389 5388 5387 5387 5387 5387 5386 5386 5385 5385 5384 5383 5382 5380 5379 5377 5375 5374 5372 5370 5369 5367 5366 5364 5363
5404 5403 5401 5399 5398 5397 5395 5394 5393 5392 5390 5389 5388 5387 5386 5385 5384 5383 5382 5381 5380 5380 5380 5380 5379 5379 5379 5378 5378 5377 5376 5375 5374 5372 5371 5369 5368 5366 5365 5363 5362 5361 5359 5358
5396 5394 5393 5391 5390 5388 5387 5386 5384 5383 5382 5381 5380 5379 5378 5377 5376 5375 5375 5374 5373 5373 5373 5373 5373 5372 5372 5371 5371 5370 5369 5369 5368 5366 5365 5364 5363 5361 5360 5359 5357 5356 5354 5353
5388 5386 5385 5383 5382 5380 5379 5377 5376 5375 5374 5373 5372 5371 5370 5370 5369 5368 5368 5367 5367 5366 5366 5366 5366 5366 5366 5365 5364 5364 5363 5362 5362 5361 5360 5359 5358 5356 5355 5354 5353 5351 5350 5349